Regional Weather Roundup
Issued by NWS

Home | Current Version | Previous Version | Graphics & Text | Print | Product List | Glossary On
Versions: 1 2 3 4 5 6 7 8 9 10 11 12 13 14 15 16 17 18 19 20 21 22 23 24 25 26 27 28 29 30 31 32 33 34 35 36 37 38 39 40 41 42 43 44 45 46 47 48 49 50
000
ASUS44 KMEG 071110
RWRTN
TENNESSEE HOURLY STATE WEATHER ROUNDUP
NATIONAL WEATHER SERVICE MEMPHIS TN
600 AM CDT TUE JUL 07 2015

TNZ002-004-019-021-049-052-054-088>092-071200-
WEST TENNESSEE

CITY           SKY/WX    TMP DP  RH WIND       PRES   REMARKS
MEMPHIS INTL   PTCLDY    78  73  84 S8        30.03R
NWS MEMPHIS      N/A     76 N/A N/A MISG        N/A
JACKSON        CLEAR     75  72  90 S7        30.03R
DYERSBURG        N/A    N/A N/A N/A MISG        N/A
PARIS          CLEAR     70  68  94 S8        30.03R
LEXINGTON      CLEAR     70  70 100 S5        30.04S
$$

TNZ008-025-027-028-033-062-065-066-071200-
NORTH MIDDLE TENNESSEE

CITY           SKY/WX    TMP DP  RH WIND       PRES   REMARKS
NASHVILLE      MOCLDY    75  72  90 S8        30.07R
CLARKSVILLE    LGT RAIN  73  71  93 S8        30.02S
SMYRNA         CLEAR     74  72  93 S5        30.09R
COOKEVILLE     PTCLDY    73  72  94 S5        30.10F
CROSSVILLE     CLOUDY    71  68  90 CALM      30.16F FOG
$$

TNZ061-075-076-078-094-096-097-071200-
SOUTH MIDDLE TENNESSEE

CITY           SKY/WX    TMP DP  RH WIND       PRES   REMARKS
FAYETTEVILLE   CLEAR     70  70 100 S6        30.12S
TULLAHOMA      CLEAR     70  70 100 S6        30.12F
WINCHESTER     PTCLDY    70  68  94 CALM      30.13S
MCMINNVILLE    CLEAR     73  73 100 S6        30.11F
COLUMBIA       CLEAR     75  75 100 SW7       30.06S
SHELBYVILLE    CLEAR     73  73 100 S6          N/A
$$

TNZ017-018-042-046-047-071200-
NORTHEAST TENNESSEE

CITY           SKY/WX    TMP DP  RH WIND       PRES   REMARKS
TRI CITIES     MOCLDY    65  64  97 CALM      30.17R FOG
ELIZABETHTON   CLOUDY    64  63  94 CALM      30.18S
$$

TNZ012-013-036-069-073-074-071200-
CENTRAL EAST TENNESSEE

CITY           SKY/WX    TMP DP  RH WIND       PRES   REMARKS
KNOXVILLE      CLOUDY    72  67  84 SW6       30.13R
OAK RIDGE      CLOUDY    71  69  93 CALM      30.14S
GATLINBURG     PTSUNNY   64  63  94 CALM      30.14R
MORRISTOWN       N/A     66  66 100 CALM      30.16S
$$

TNZ083-085-099-071200-
SOUTHEAST TENNESSEE

CITY           SKY/WX    TMP DP  RH WIND       PRES   REMARKS
CHATTANOOGA    PTCLDY    71  69  93 CALM      30.14R FOG
$$

SKY/WX REPORTED AS FAIR MEANS FEW OR NO CLOUDS BELOW
12 THOUSAND FEET.



USA.gov is the U.S. government's official web portal to all federal, state and local government web resources and services.